"Pseudo-MPEC" for P10IcyO

Created 2018 Jul 12 16:18:12 UT using Find_Orb

Click here for an explanation of pseudo-MPECs

 
 Astrometry: 
     P10IcyO  C2018 07 08Y/AstrometrykYSswcd9Wm.56tX!SM@kLMWc6QToaE):ZW\M8:uOF51
     P10IcyO  C2018 07 081taf6o91`@^q)NI]wd\XU;57h'+='4Nv;lE.#+N;W2iZIgD`G;bkF51
     P10IcyO  C2018 07 08,+M8HTLwVl#G-)vd;eDdRBJx?CLGpJKDG[!m^HG?/P;skZq0g94AF51
     P10IcyO KC2018 07 097T][Z_QR/v08w#v$o/Ud]ETd2nyS_-jtg)Ls8(o@GYqG^@09+mm*H21
     P10IcyO KC2018 07 09XJWI/m*+w0XilMl3Nredacted;%^Oc$:Vc-Jmc\c39fwWZ[1ktT]H21
     P10IcyO KC2018 07 09!J*bYCgMP[$xx`a2SNcdbDZMi.'c(Qm.m'+ZT+eicch#$TVRqtn;H21
     P10IcyO KC2018 07 10TA^bIdL+o?mcxwU^xG%f%^t[jk0_`dZDM]cSh2L5uM4M\riZsI!x734
     P10IcyO KC2018 07 10-O4QAD6'.q5.iBwUo2+vXXr!lF$GDewX=rVSSe$YT3wdXFPcBQuT734
     P10IcyO KC2018 07 10#v#!HHfyZ)q77$Vo8d\:;FLaQi)(]_o8cJ:ej9ytdjeh4equ=!hHH21
     P10IcyO KC2018 07 10EK*ccj2!-\;rMTK!rf:A'qpbiK*kpUv4see@FsM)4y0BJ1:fw/]Q734
     P10IcyO KC2018 07 10*#F%07v@gd8-d2ZGF3WC8h7$?F;KPZN*`N0K?`k-J):4;O6bm_\PH21
     P10IcyO KC2018 07 12Y!wtLM.T2o\Bt(ec,H#t,04I$M#:#6;1B(?P:h36bir'R$*/xHpcH21
     P10IcyO KC2018 07 12\?AcB[fYPADL#=#q`j-3%*?]4(56xxL=?5:TUM+vKWyB4J($W+76H21
     P10IcyO KC2018 07 12i0sW9cm7a?/[.#5cPt:URmwfEOe6@.Gme`V2wr+,S9/BV9=NEOCPH21

Station data:
(734) Farpoint Observatory, Eskridge  (N38.890107 W96.001400)  US/Kansas.
   Observer G. Hug. .3 meter s-c + CCD.
(F51) Pan-STARRS 1, Haleakala  (N20.707235 W156.255910)  US/Hawaii.
   Observers N. Primak, A. Schultz, S. Watters, J. Thiel, T. Goggia. Measurer
   PS1 Science Consortium. 1.8-m Ritchey-Chrétien + CCD.
(H21) Astronomical Research Observatory, Westfield  (N39.483057 W87.968270)
   US/Illinois. 0.76-m f/3.0 astrograph + CCD.

Orbital elements:  P10IcyO
   Perihelion 2018 Jul 30.431971 +/- 0.35 TT = 10:22:02 (JD 2458329.931971)
Epoch 2018 Jul 12.0 TT = JDT 2458311.5   Earth MOID: 0.3288   Ma: 0.0395
M 355.82399 +/- 0.55                (J2000 ecliptic)          AutoNEOCP
n   0.22656311 +/- 0.0347           Peri.  125.59945 +/- 0.6
a   2.66487336 +/- 0.272            Node   170.60455 +/- 0.28
e   0.5504812 +/- 0.0405            Incl.   30.24091 +/- 1.1
P   4.35                   H 20.8   G  0.15   U 10.5  
q 1.19791045 +/- 0.0165    Q 4.13183627 +/- 0.598
From 14 observations 2018 July 8-12; mean residual 0".28
Residuals in arcseconds: 
180708 F51  .04+  .08+    180709 H21  .10+  .65-    180710 H21  .47+  .27+    
180708 F51  .27-  .02-    180710 734  .61-  .28+    180712 H21  .09-  .23-    
180708 F51  .17-  .20+    180710 734  .33-  .13-    180712 H21  .16-  .02-    
180709 H21  .30+  .29-    180710 H21  .45+  .06+    180712 H21  .24+  .05+    
180709 H21  .41+  .04-    180710 734  .14-  .32+    

Ephemerides (geocentric):
Date (UTC) HH   RA              Dec         delta   r     elong  mag " sig PA
---- -- -- --  -------------   -----------  ------ ------ -----  --- ---- ---
2018 07 12 16  16 37 46.876   +56 07 19.58  .59668 1.2156  94.2 22.1  .30  52
2018 07 12 17  16 37 51.035   +56 06 55.30  .59650 1.2155  94.2 22.1  .31  52
2018 07 12 18  16 37 55.202   +56 06 30.94  .59632 1.2155  94.2 22.1  .33  52
2018 07 12 19  16 37 59.374   +56 06 06.50  .59615 1.2154  94.2 22.1  .34  52
2018 07 12 20  16 38 03.553   +56 05 41.97  .59597 1.2153  94.2 22.1  .35  52
2018 07 12 21  16 38 07.738   +56 05 17.37  .59579 1.2152  94.2 22.1  .37  52
2018 07 12 22  16 38 11.930   +56 04 52.69  .59561 1.2151  94.2 22.1  .38  52
2018 07 12 23  16 38 16.128   +56 04 27.93  .59544 1.2150  94.2 22.1  .40  52
2018 07 13 00  16 38 20.333   +56 04 03.09  .59526 1.2150  94.2 22.1  .41  52
2018 07 13 01  16 38 24.544   +56 03 38.16  .59508 1.2149  94.2 22.1  .43  52
2018 07 13 02  16 38 28.761   +56 03 13.16  .59490 1.2148  94.2 22.1  .44  52
2018 07 13 03  16 38 32.985   +56 02 48.08  .59472 1.2147  94.2 22.1  .46  52
2018 07 13 04  16 38 37.216   +56 02 22.92  .59455 1.2146  94.2 22.1  .47  52
2018 07 13 05  16 38 41.452   +56 01 57.67  .59437 1.2146  94.2 22.1  .49  52
2018 07 13 06  16 38 45.696   +56 01 32.35  .59419 1.2145  94.2 22.1  .50  52
2018 07 13 07  16 38 49.945   +56 01 06.95  .59401 1.2144  94.2 22.1  .52  52
2018 07 13 08  16 38 54.201   +56 00 41.46  .59383 1.2143  94.2 22.1  .54  52
2018 07 13 09  16 38 58.464   +56 00 15.90  .59365 1.2142  94.2 22.1  .55  52
2018 07 13 10  16 39 02.733   +55 59 50.25  .59347 1.2142  94.2 22.1  .57  53
2018 07 13 11  16 39 07.008   +55 59 24.52  .59329 1.2141  94.2 22.1  .59  53
2018 07 13 12  16 39 11.290   +55 58 58.71  .59311 1.2140  94.2 22.1  .60  53
2018 07 13 13  16 39 15.578   +55 58 32.83  .59293 1.2139  94.2 22.1  .62  53
2018 07 13 14  16 39 19.873   +55 58 06.86  .59275 1.2139  94.2 22.1  .64  53
2018 07 13 15  16 39 24.174   +55 57 40.81  .59257 1.2138  94.2 22.1  .66  53
2018 07 13 16  16 39 28.482   +55 57 14.67  .59239 1.2137  94.2 22.1  .68  54
2018 07 13 17  16 39 32.796   +55 56 48.46  .59221 1.2136  94.2 22.1  .69  54
2018 07 13 18  16 39 37.117   +55 56 22.16  .59203 1.2135  94.2 22.1  .71  54
2018 07 13 19  16 39 41.444   +55 55 55.79  .59185 1.2135  94.2 22.1  .73  54
2018 07 13 20  16 39 45.778   +55 55 29.33  .59167 1.2134  94.2 22.1  .75  54
2018 07 13 21  16 39 50.118   +55 55 02.79  .59149 1.2133  94.2 22.1  .77  55
2018 07 13 22  16 39 54.464   +55 54 36.17  .59131 1.2132  94.2 22.1  .79  55
2018 07 13 23  16 39 58.817   +55 54 09.47  .59113 1.2132  94.2 22.1  .81  55
2018 07 14 00  16 40 03.177   +55 53 42.68  .59095 1.2131  94.2 22.1  .83  55
2018 07 14 01  16 40 07.543   +55 53 15.82  .59077 1.2130  94.3 22.1  .85  56
2018 07 14 02  16 40 11.915   +55 52 48.87  .59059 1.2129  94.3 22.1  .87  56
2018 07 14 03  16 40 16.294   +55 52 21.84  .59041 1.2129  94.3 22.1  .89  56
2018 07 14 04  16 40 20.679   +55 51 54.73  .59022 1.2128  94.3 22.1  .92  56
2018 07 14 05  16 40 25.071   +55 51 27.54  .59004 1.2127  94.3 22.1  .94  57
2018 07 14 06  16 40 29.470   +55 51 00.26  .58986 1.2126  94.3 22.1  .96  57
2018 07 14 07  16 40 33.875   +55 50 32.90  .58968 1.2126  94.3 22.1  .98  57
2018 07 14 08  16 40 38.286   +55 50 05.46  .58950 1.2125  94.3 22.1  1.0  57
2018 07 14 09  16 40 42.704   +55 49 37.94  .58932 1.2124  94.3 22.1  1.0  58
2018 07 14 10  16 40 47.128   +55 49 10.33  .58913 1.2123  94.3 22.1  1.1  58
2018 07 14 11  16 40 51.559   +55 48 42.65  .58895 1.2123  94.3 22.1  1.1  58
2018 07 14 12  16 40 55.997   +55 48 14.87  .58877 1.2122  94.3 22.1  1.1  58
2018 07 14 13  16 41 00.440   +55 47 47.02  .58859 1.2121  94.3 22.1  1.1  59
2018 07 14 14  16 41 04.891   +55 47 19.09  .58840 1.2120  94.3 22.1  1.1  59
2018 07 14 15  16 41 09.348   +55 46 51.07  .58822 1.2120  94.3 22.1  1.2  59